User: anonymous   Login
Location: *
(48.4333°N, 5.0333°W)
Time: 17:31:59
(UTC+00:00)
Language:

SJ-6B - Orbit

View from above orbital plane
View from above orbital plane
View from above satellite
View from above satellite

Ground track
Ground track

The orbit data is extracted from the following two-line orbital elements,

1 28415U 04035C   21127.86727801  .00000558  00000-0  40459-4 0  9998
2 28415  97.5689 171.0762 0050370 327.3447  32.4669 15.07099416912492
Epoch (UTC): 07 May 2021 20:48:52
Eccentricity: 0.0050370
inclination: 97.5689°
perigee height: 510 km
apogee height: 580 km
right ascension of ascending node: 171.0762°
argument of perigee: 327.3447°
revolutions per day: 15.07099416
mean anomaly at epoch: 32.4669°
orbit number at epoch: 91249

The dashed part of the orbit path shows where the satellite is in the earth's shadow,  

DLR